GFSCGP_sfc_thetae_087.txt.gz
Theta_e
311 308 307 311 314 318 318 316 315 321 328 324 322 327 332 332 334 333 334 333 333 334 339 339 342 342 341 345 350 353 353 357 356 353 351 358 353 361 364 363 362 362 362 361
308 305 311 313 314 315 318 316 315 320 326 323 323 323 332 334 333 335 335 333 334 335 335 338 341 341 340 343 347 353 355 358 358 355 359 354 354 357 357 359 361 365 360 361
306 308 312 311 312 314 317 316 316 315 318 319 319 320 328 331 336 336 336 337 336 334 332 338 341 341 342 343 345 351 355 358 358 362 357 358 361 358 354 356 356 359 361 360
309 312 310 309 312 315 312 318 316 316 315 311 321 310 322 328 329 334 333 335 336 336 335 340 340 342 342 341 345 351 356 357 357 363 360 365 352 351 352 360 358 359 361 362
306 309 308 308 312 315 312 319 316 314 313 313 315 312 315 329 327 330 335 337 337 337 337 339 341 342 344 343 345 350 357 360 363 363 366 357 360 352 352 355 361 365 365 362
310 313 313 312 315 315 317 316 317 315 313 305 311 313 312 320 324 328 332 334 339 340 339 340 343 344 346 344 346 349 356 361 361 361 362 363 360 357 351 355 353 354 356 358
309 309 314 317 312 316 315 312 305 303 303 302 311 311 312 321 325 327 328 333 337 341 339 342 339 343 346 344 345 348 355 358 360 359 360 361 361 361 360 358 355 350 353 354
302 301 311 316 315 311 312 311 304 298 300 303 311 308 311 322 328 331 333 335 336 338 342 342 343 344 345 346 346 349 354 359 360 359 363 366 364 358 355 358 360 352 361 355
303 302 309 310 315 312 311 307 312 306 309 304 308 311 318 324 325 328 327 333 339 337 342 344 347 342 344 347 349 350 355 358 360 360 362 365 365 364 359 367 361 356 361 355
307 301 306 307 310 312 310 315 306 306 300 299 305 307 309 317 321 322 323 328 335 341 340 344 344 344 343 346 347 350 353 356 360 361 360 360 362 364 363 361 361 362 362 359
309 306 303 306 305 306 308 307 310 309 307 302 300 305 319 319 322 320 321 323 327 335 340 345 345 342 348 348 347 350 352 355 357 360 361 361 360 361 362 360 360 361 361 362
309 306 301 302 307 308 309 309 310 304 303 306 304 305 322 321 325 323 321 321 326 330 333 334 338 340 341 344 344 344 348 351 355 359 361 359 360 361 359 361 361 364 364 361
307 303 299 299 303 306 305 308 309 310 309 305 302 305 321 322 324 326 321 322 322 326 330 328 331 332 332 338 344 342 345 345 350 356 357 358 358 358 359 360 361 364 363 363
308 305 302 297 301 305 303 304 306 307 303 305 306 309 316 318 320 320 322 322 321 322 325 327 327 326 330 330 332 338 338 343 348 348 352 356 357 359 359 362 363 360 365 364
306 300 303 302 302 303 304 303 303 304 306 303 308 311 315 318 320 321 320 322 322 322 322 322 323 325 326 327 328 331 334 340 343 348 351 348 358 359 359 360 361 360 365 364
306 302 303 300 300 300 299 300 300 303 304 306 309 309 316 320 321 320 321 321 319 320 322 325 325 325 325 326 325 326 328 331 337 340 340 347 353 355 360 361 359 360 359 364
304 303 301 296 300 298 295 300 301 302 304 307 306 312 316 316 316 317 318 318 318 319 321 322 323 324 326 327 329 326 325 326 327 328 328 336 341 342 345 355 361 362 362 362
303 304 302 296 299 290 300 305 304 302 304 308 312 314 315 315 316 315 316 315 315 315 316 318 318 320 323 325 326 330 331 327 326 325 326 328 331 336 339 344 354 360 360 359
305 304 299 295 295 297 298 301 300 301 302 307 309 310 312 312 314 312 314 314 315 315 316 317 318 319 321 322 323 325 328 330 330 328 329 327 327 328 332 338 340 351 358 362
303 305 300 297 293 290 300 304 307 305 298 308 309 309 309 309 303 310 314 313 313 314 315 316 316 318 318 320 321 321 322 325 326 328 329 331 332 329 326 328 333 339 348 356
298 299 296 296 294 298 305 305 305 294 300 309 309 310 308 307 311 312 312 312 313 313 313 315 316 316 318 319 320 320 321 321 325 326 328 330 331 332 331 330 332 333 337 344
298 296 296 297 295 292 307 304 298 307 310 309 309 308 307 308 309 309 310 310 311 312 312 313 314 315 317 318 318 318 320 323 324 325 326 328 330 329 329 332 335 334 336 338
297 302 300 299 301 310 310 308 312 311 309 308 307 308 307 306 307 307 308 309 310 311 312 313 312 313 316 317 318 316 319 321 322 322 323 326 327 328 330 328 331 329 337 337
302 305 301 302 305 306 308 308 308 307 307 307 307 307 306 306 306 307 308 308 309 310 310 311 311 311 313 315 315 317 319 320 319 320 321 322 324 324 325 327 326 325 326 330
305 305 301 302 305 306 307 306 307 306 307 306 307 307 306 306 306 307 307 307 308 308 309 310 309 309 309 311 313 315 317 319 318 318 318 319 320 322 324 326 324 324 327 322
304 303 301 301 306 306 306 309 309 307 307 307 307 306 307 307 307 307 309 309 308 308 309 309 309 309 308 307 309 312 314 316 317 316 316 316 317 318 318 319 319 310 309 307

GFSCGP_sfc_thetae_090.txt.gz
Theta_e
313 306 305 309 315 318 317 317 317 319 329 327 325 325 327 331 330 329 329 330 331 332 337 338 338 339 343 349 352 356 356 360 359 358 354 359 353 363 365 351 355 365 367 360
307 303 310 313 314 314 316 314 316 318 321 321 325 324 329 331 330 330 331 330 332 332 334 336 337 337 340 347 352 357 359 361 363 359 363 361 357 364 361 360 366 367 365 367
305 307 311 311 310 309 312 313 317 316 319 320 320 320 324 329 334 334 334 334 334 334 333 336 339 339 340 346 350 355 360 360 362 366 361 348 349 348 350 361 361 363 365 367
308 311 309 309 308 310 308 317 318 317 310 310 322 311 322 327 328 331 333 333 334 335 336 338 339 339 339 344 349 356 361 359 358 367 367 359 349 346 356 360 354 362 366 366
306 308 308 307 308 313 311 319 317 317 313 311 312 313 314 313 324 327 333 334 334 335 337 338 340 342 342 345 346 354 359 361 359 363 366 361 358 351 349 353 355 363 366 367
309 313 311 311 312 316 317 315 317 316 313 305 310 310 314 312 316 328 333 334 336 338 336 339 342 342 343 341 344 352 358 361 364 362 363 360 358 348 353 358 360 358 361 362
307 308 311 313 310 314 313 310 305 302 302 301 312 309 315 317 320 321 332 335 337 339 339 338 339 341 343 339 345 352 357 358 361 361 361 362 360 361 350 354 348 353 349 356
301 301 307 313 311 310 310 311 304 298 299 302 310 308 312 318 329 331 334 335 334 333 341 339 340 344 345 345 344 350 356 358 360 361 363 366 366 363 357 360 359 351 357 356
302 303 311 314 316 315 309 307 313 307 307 303 308 313 319 325 325 328 330 335 337 336 340 343 343 345 346 344 343 349 356 358 360 360 363 365 366 365 359 365 368 366 362 353
308 301 310 311 312 314 311 314 305 307 299 298 305 308 311 319 320 323 326 327 332 336 341 342 341 343 347 349 346 352 355 358 361 361 362 362 364 366 367 369 360 370 360 350
309 306 304 308 306 306 308 307 309 309 306 300 300 305 320 321 322 322 324 327 329 330 333 336 339 341 345 343 340 341 347 356 360 361 362 362 362 364 366 365 369 368 371 356
310 306 301 302 308 310 311 309 309 303 304 306 306 305 320 323 324 324 323 325 328 327 327 332 335 338 338 336 341 343 345 347 355 360 363 363 363 363 363 364 365 369 368 369
307 304 299 300 304 307 305 308 309 309 309 305 300 305 321 324 323 323 322 322 325 326 327 327 330 331 333 334 333 338 341 343 345 357 360 361 361 362 362 364 364 367 367 366
310 303 302 296 300 305 302 305 308 307 302 305 305 310 315 318 319 320 322 321 322 324 325 325 326 327 328 328 331 334 337 340 344 345 353 352 359 360 361 365 364 365 367 365
305 299 303 304 303 304 304 304 305 304 306 304 309 310 316 317 318 320 322 323 323 323 323 325 325 327 329 328 328 331 331 335 339 341 341 347 349 358 366 367 364 366 368 365
306 299 303 300 302 302 301 303 304 304 305 308 309 309 318 319 322 320 321 320 320 321 322 324 325 327 329 329 327 329 330 331 334 335 334 339 342 347 351 356 362 364 365 364
304 301 300 297 302 300 296 301 301 303 306 311 307 310 316 317 317 318 319 319 319 319 319 319 321 323 324 325 331 327 327 329 330 332 332 334 338 340 342 346 351 358 361 364
305 304 302 297 300 290 301 306 306 303 305 312 314 316 316 316 317 318 318 316 316 317 317 318 318 320 323 322 324 329 332 331 331 330 330 331 332 333 335 338 342 344 349 358
306 304 299 295 294 299 300 303 302 302 302 313 314 314 314 315 314 312 315 316 315 316 316 317 317 319 324 321 325 327 328 331 330 330 332 332 332 332 332 331 333 338 341 345
303 304 300 298 293 290 300 305 307 305 298 310 314 313 312 313 306 308 313 314 314 314 315 315 316 317 318 320 321 321 322 325 325 327 329 332 334 334 333 334 333 336 340 342
297 298 295 296 295 298 305 305 306 294 300 310 313 312 311 308 312 314 315 314 314 314 314 315 316 316 317 319 318 321 321 320 323 326 327 330 332 333 336 336 337 335 335 339
298 296 295 296 294 292 308 305 298 309 312 311 312 312 312 312 312 312 312 312 312 312 313 314 314 314 317 318 318 318 320 323 325 325 325 327 330 329 328 335 334 334 337 337
298 302 300 301 301 310 310 310 312 312 310 310 311 310 311 309 309 310 310 311 311 312 313 313 312 313 316 318 317 315 320 322 323 323 323 324 326 328 330 331 330 329 331 337
304 306 302 303 307 308 309 312 312 312 311 310 310 309 308 308 308 309 309 309 310 310 310 311 310 310 311 314 314 316 318 320 320 320 322 322 322 322 325 326 325 327 326 326
306 306 302 303 306 307 308 308 308 308 309 308 308 308 307 307 307 308 308 309 308 308 309 310 309 309 310 311 311 312 314 314 313 316 318 319 319 321 322 326 325 324 328 324
306 302 302 301 307 308 308 309 309 307 306 308 307 307 308 308 308 308 308 309 309 308 309 309 309 309 309 309 310 310 311 311 309 309 311 314 315 317 318 319 320 314 309 306

GFSCGP_sfc_thetae_093.txt.gz
Theta_e
307 299 296 301 305 307 311 313 314 317 322 320 322 322 326 329 329 326 326 324 325 327 329 333 338 342 344 342 342 345 343 348 346 349 347 346 344 350 348 349 349 354 350 346
302 298 304 307 308 307 309 309 314 318 322 321 323 321 326 328 326 327 326 324 326 327 328 330 334 340 342 342 342 348 345 348 344 347 350 349 349 349 350 349 352 354 353 350
300 303 309 305 305 305 306 303 314 314 319 322 318 315 322 328 329 331 331 330 328 328 328 329 329 338 341 342 344 348 348 347 349 347 347 346 346 341 347 347 351 355 355 354
302 308 306 304 303 304 297 309 315 316 313 305 318 303 311 322 324 327 328 329 330 330 331 330 329 335 339 342 347 350 349 347 348 351 344 344 335 334 343 348 350 351 353 355
300 304 303 302 304 306 302 318 318 316 311 312 312 307 313 320 320 323 326 330 330 332 333 331 332 333 340 343 345 350 349 347 344 349 347 342 341 345 343 346 348 352 352 354
304 309 307 305 308 308 310 311 312 310 307 299 309 310 309 314 320 325 330 331 332 332 333 335 335 335 339 342 345 348 350 348 347 349 349 347 343 342 343 344 347 348 351 352
301 303 307 308 303 306 306 302 295 297 296 296 305 309 308 319 320 324 325 326 334 334 334 334 336 336 337 338 344 347 349 349 350 349 350 348 348 344 345 345 343 345 348 349
294 293 303 308 302 301 302 300 294 294 293 296 305 302 308 320 323 328 333 333 333 333 332 333 336 337 338 336 342 345 347 348 348 350 350 351 349 347 345 348 347 348 347 348
296 297 307 308 308 306 304 299 304 299 299 295 303 307 314 318 318 325 329 328 330 334 340 337 336 338 339 337 341 345 348 349 349 352 352 353 350 349 350 350 354 349 350 356
304 294 305 307 310 310 307 306 296 297 293 290 301 303 306 316 320 325 325 326 328 333 338 339 341 342 340 343 343 347 346 348 351 351 354 354 352 351 352 353 351 349 348 349
303 298 301 306 301 301 302 299 300 299 297 294 295 301 317 317 319 320 323 324 325 328 331 337 336 337 339 343 343 341 341 343 344 350 353 353 353 354 354 353 354 352 346 349
302 298 295 297 302 309 304 301 300 294 293 300 301 300 320 321 321 321 322 323 325 327 329 331 334 336 336 337 342 341 343 343 345 344 346 354 355 354 352 354 355 352 349 348
300 298 293 295 296 299 297 301 299 298 299 300 296 301 322 321 320 321 320 323 322 324 326 327 327 329 331 333 335 339 340 342 344 343 344 347 352 355 351 353 355 356 354 351
308 298 296 291 293 296 296 300 301 298 295 300 299 307 314 316 315 317 319 321 322 322 323 323 322 322 326 329 329 331 334 340 341 340 342 342 343 345 350 356 356 357 357 355
300 295 295 299 302 299 299 300 301 296 305 299 304 309 313 316 315 318 319 320 320 321 322 322 323 323 324 325 327 327 330 335 335 336 339 339 343 344 343 344 352 355 354 357
301 295 297 295 301 299 297 301 302 301 309 306 308 310 318 319 319 318 319 319 318 319 320 322 323 324 323 324 325 327 328 331 331 331 334 338 339 340 340 342 344 351 351 352
298 297 294 289 298 298 291 297 298 298 308 310 305 310 317 315 315 316 316 316 314 314 315 315 316 315 315 322 325 324 324 328 329 330 331 333 334 334 335 338 339 340 341 349
298 296 294 291 295 284 294 301 302 300 309 313 313 314 316 317 317 314 313 312 312 312 312 312 314 315 315 317 318 325 327 327 327 327 328 330 332 331 332 333 334 335 337 339
299 297 293 289 287 294 299 300 299 298 308 314 313 316 313 312 310 309 313 312 311 311 310 310 313 315 315 315 316 319 321 321 320 321 323 327 329 328 330 330 332 332 334 336
297 299 293 292 290 287 295 302 305 303 301 312 311 309 309 310 302 302 310 311 310 310 309 310 312 313 313 312 314 315 316 316 316 318 319 323 324 323 325 327 328 330 331 332
291 293 289 289 289 296 301 302 303 292 296 313 312 310 309 303 306 307 309 309 309 310 309 310 311 311 311 313 313 312 314 313 316 317 318 320 321 322 321 324 324 324 326 330
293 290 290 290 287 288 306 302 298 303 306 308 309 310 307 307 308 308 308 307 308 308 309 310 309 310 311 311 311 310 309 312 315 316 316 316 317 319 321 321 323 324 323 324
292 297 294 296 296 303 307 305 307 307 305 306 306 308 308 307 306 306 305 306 307 307 307 307 306 307 308 309 308 306 309 310 311 313 314 315 315 317 318 319 317 317 320 318
299 303 296 298 303 305 306 308 308 307 305 306 306 305 306 304 305 305 304 304 304 304 304 306 305 304 305 306 307 306 306 307 306 306 308 310 312 312 313 315 317 317 315 316
301 302 297 297 304 305 306 306 305 307 307 306 306 305 305 305 305 304 303 303 303 303 304 304 303 303 303 305 305 305 305 305 303 303 304 306 307 307 309 312 312 314 315 311
303 299 295 295 302 302 305 305 306 304 304 304 303 304 305 306 304 305 304 304 303 303 303 303 303 303 303 303 302 303 304 304 303 302 303 303 303 305 307 308 309 310 307 305

GFSCGP_sfc_thetae_096.txt.gz
Theta_e
306 298 295 298 300 302 302 302 313 318 325 320 320 322 326 329 330 328 325 321 326 330 333 336 339 341 341 341 337 338 344 345 346 344 342 343 341 345 345 347 351 352 349 344
299 295 301 305 304 303 302 305 315 319 322 322 318 321 325 328 326 329 325 322 324 327 330 334 338 339 338 339 337 340 344 343 344 345 345 346 344 345 346 346 346 351 348 344
296 301 306 305 303 300 299 298 313 314 316 317 317 315 320 327 329 328 329 326 325 326 326 332 336 337 337 339 342 340 344 340 342 347 346 344 341 341 343 345 346 350 351 351
299 305 305 302 301 300 292 304 316 317 312 307 316 302 311 318 323 326 328 329 326 326 327 333 335 336 337 340 345 343 344 343 346 345 342 341 338 335 340 342 347 348 352 351
298 300 301 300 301 302 299 307 316 316 309 311 310 303 309 315 318 323 328 329 329 329 328 329 334 337 339 342 345 344 344 342 346 346 343 339 334 337 342 345 345 347 346 351
300 306 303 302 305 305 307 313 313 313 305 298 306 308 309 312 318 323 327 329 332 331 331 330 333 338 339 342 346 345 343 340 342 347 344 340 339 340 341 341 344 346 347 348
301 301 304 305 299 302 303 297 292 296 295 295 308 307 308 318 324 325 326 328 330 335 333 333 332 336 338 340 344 347 343 340 341 345 345 344 343 341 343 342 344 344 345 347
293 293 299 304 301 298 298 298 292 290 291 294 309 303 306 322 328 329 331 333 333 333 334 335 335 335 337 340 343 348 344 341 344 345 346 345 346 345 344 343 342 344 346 347
293 293 304 306 305 303 297 296 300 295 295 296 303 307 315 320 322 328 328 327 329 333 335 335 336 337 336 339 343 344 346 346 345 347 346 346 347 346 343 344 346 343 346 350
299 293 298 305 305 306 302 304 295 293 290 292 299 301 303 310 318 324 324 325 329 333 338 339 339 340 341 342 342 344 346 344 344 348 347 350 348 346 346 347 347 349 348 351
298 294 296 300 297 299 300 297 298 296 294 296 295 301 318 317 322 322 323 325 327 329 333 335 337 340 340 341 341 341 341 342 343 344 343 344 349 349 347 349 349 347 347 347
298 293 290 295 301 306 302 299 296 293 294 298 297 304 321 321 322 321 323 324 326 327 330 333 335 337 338 339 341 341 341 341 342 343 344 345 348 347 349 350 350 349 346 346
296 292 289 293 294 298 295 297 295 295 298 295 295 303 321 320 320 322 321 322 324 325 324 326 328 330 333 336 340 340 341 341 342 342 342 342 343 348 348 349 350 350 345 345
306 291 293 289 291 294 293 297 298 294 295 295 298 308 314 316 316 319 319 321 322 321 321 322 323 325 327 329 332 334 338 342 342 342 340 339 342 342 342 344 348 349 350 347
298 290 292 296 298 298 295 296 299 299 299 296 306 308 310 314 316 318 320 320 319 320 320 318 319 321 322 323 327 331 334 335 339 339 339 339 340 342 338 340 342 345 349 350
295 295 292 295 298 299 295 297 302 306 306 308 309 309 315 318 318 317 318 319 319 320 321 322 321 321 321 322 324 327 329 330 332 334 335 338 337 337 338 339 340 341 341 347
294 291 293 290 296 294 289 294 295 302 308 311 305 312 317 315 317 317 317 316 314 314 314 315 317 319 322 323 324 324 327 328 328 328 330 332 332 332 332 333 334 335 336 339
293 292 290 289 293 284 292 298 302 309 311 313 313 315 316 315 317 315 315 312 312 312 312 311 312 313 314 316 322 324 325 325 326 327 329 331 332 331 331 331 331 331 334 336
295 290 288 286 286 294 298 298 296 300 305 315 313 314 314 311 310 309 312 311 308 307 308 310 311 310 311 313 316 317 316 316 316 317 320 324 326 326 330 329 330 331 331 332
293 292 289 286 284 285 296 302 303 307 300 315 316 311 309 309 301 304 310 309 308 308 309 309 310 310 310 310 314 313 312 312 312 313 316 317 319 320 322 323 325 329 330 332
286 288 287 287 286 291 299 302 305 291 294 310 310 309 308 305 306 306 308 307 308 308 309 310 310 308 307 309 310 308 308 308 311 313 314 315 314 316 317 318 320 323 322 322
289 285 285 287 284 283 304 303 298 300 302 310 309 307 306 308 307 306 306 305 306 306 308 308 306 305 306 306 307 304 304 307 308 309 309 310 313 314 316 314 315 315 315 317
290 293 291 293 292 300 302 302 304 304 304 304 306 308 308 307 305 305 304 304 304 304 304 305 304 303 304 305 305 302 302 305 304 304 304 306 307 308 310 310 311 313 314 314
296 297 294 295 299 300 302 303 305 305 303 304 307 306 307 303 304 302 302 302 302 303 303 303 302 301 301 302 302 302 303 303 302 301 301 303 303 303 304 308 309 309 308 308
296 296 293 293 298 301 304 302 303 303 304 303 304 305 304 304 302 302 301 300 301 301 301 301 301 300 300 300 300 301 301 302 301 300 300 300 300 300 302 305 305 307 307 303
297 294 291 289 297 297 300 302 304 302 302 302 303 302 304 304 302 302 301 301 301 301 300 300 300 300 299 299 300 300 301 300 298 298 299 299 298 299 300 300 302 304 303 302

GFSCGP_sfc_thetae_099.txt.gz
Theta_e
304 298 295 298 300 301 302 302 314 319 326 320 320 321 322 327 328 324 323 325 328 330 337 339 339 342 339 338 339 341 342 343 344 343 341 341 340 344 347 348 349 349 347 345
298 295 300 303 303 303 302 309 313 319 321 321 321 320 325 327 327 326 325 323 326 330 333 336 337 339 337 336 337 339 342 343 342 343 342 343 343 344 343 344 346 349 347 341
296 299 304 303 301 300 298 298 314 314 318 319 318 315 321 326 329 331 328 324 328 328 330 334 335 337 338 335 336 340 341 342 342 344 343 341 341 341 343 343 343 347 347 346
298 304 303 300 300 299 292 303 312 315 309 303 314 303 312 319 321 326 327 323 326 328 331 334 334 334 337 336 339 341 341 338 343 344 342 340 338 336 339 341 344 346 349 349
297 299 299 298 300 300 298 306 314 314 309 305 307 303 309 314 314 321 325 327 323 327 332 333 334 334 337 339 339 342 340 339 342 342 341 339 336 337 339 342 343 344 346 348
299 303 301 300 303 302 306 312 311 308 305 297 304 304 307 310 315 321 327 329 327 326 331 335 336 336 336 341 340 342 340 340 342 342 341 338 335 336 338 339 342 343 344 346
298 300 302 303 297 299 299 303 296 294 295 295 304 304 305 316 320 324 326 328 328 328 330 331 333 335 335 339 341 341 340 338 342 344 342 340 338 340 339 340 342 342 342 345
290 291 299 301 298 295 295 299 293 290 291 294 306 299 306 320 324 327 329 330 333 331 334 332 333 336 337 338 343 341 340 337 339 342 343 343 342 340 342 342 343 344 344 346
290 293 302 302 302 302 296 294 298 295 292 295 300 304 315 323 324 326 326 329 330 332 335 335 335 337 337 338 342 343 341 338 340 340 343 343 343 343 342 343 342 343 345 347
294 291 297 303 303 303 299 301 294 291 287 288 296 297 301 315 320 322 321 324 328 333 336 337 336 335 338 338 340 345 346 343 341 342 343 343 343 346 344 342 343 344 344 345
296 293 295 298 295 298 299 295 294 294 293 290 292 299 314 312 320 320 323 325 327 329 334 336 338 339 338 341 341 341 342 341 343 345 343 344 346 345 344 345 346 348 347 347
296 292 290 294 299 300 299 297 295 291 291 295 297 301 321 321 321 322 321 324 326 329 331 333 337 339 338 339 339 339 339 341 341 341 343 345 346 346 345 345 346 349 347 346
294 291 289 292 294 297 293 295 294 294 296 295 295 301 321 320 320 321 321 323 324 325 326 328 330 332 337 339 340 340 340 341 341 340 339 342 343 342 344 345 345 348 347 344
303 291 291 287 291 293 291 293 295 294 291 294 297 308 315 317 318 319 320 321 321 322 323 325 326 327 330 334 337 339 339 341 342 341 339 338 340 335 337 339 342 345 348 343
296 290 292 296 295 296 293 294 297 293 295 296 303 308 313 315 317 317 319 319 318 318 319 321 320 321 325 328 331 333 335 339 341 339 339 338 338 340 339 338 339 340 343 347
293 291 291 293 298 297 293 296 298 305 307 306 309 309 318 318 317 316 318 318 317 317 318 320 321 322 322 325 327 328 330 332 335 336 337 338 337 337 337 336 336 336 337 339
294 290 291 287 294 294 290 293 293 303 309 310 305 310 316 314 315 315 316 318 314 315 316 317 319 321 322 323 325 325 327 329 329 330 331 331 332 331 331 332 332 332 333 335
291 292 289 290 292 285 293 297 308 309 311 311 312 314 315 315 316 316 314 312 312 313 313 313 313 316 321 322 318 318 319 319 320 322 325 326 328 330 330 330 329 330 331 331
292 289 286 285 288 295 298 298 295 299 306 314 313 314 316 315 310 309 312 313 311 311 311 310 312 314 314 314 314 314 314 315 315 315 316 318 321 325 323 322 325 328 329 330
291 291 289 286 284 285 296 300 303 309 302 317 316 314 309 310 302 305 309 310 310 309 309 310 311 311 310 308 310 310 309 310 310 311 313 314 315 316 316 319 320 324 324 324
285 285 284 285 284 290 299 304 306 290 292 316 316 311 310 307 306 306 306 308 309 309 310 309 309 307 306 306 307 305 306 306 307 309 309 309 309 312 312 314 315 315 318 319
288 284 283 284 282 282 302 302 294 297 304 310 311 310 307 306 307 306 306 305 308 307 307 307 304 304 304 304 304 301 302 304 305 305 306 305 305 307 309 308 311 312 311 311
288 291 289 290 289 297 300 298 300 303 305 306 308 309 308 307 306 306 303 304 306 306 304 304 303 302 302 302 302 300 300 302 302 302 302 302 303 304 304 305 305 307 308 307
293 295 293 293 297 298 299 301 302 305 305 307 308 308 308 306 307 304 303 303 302 302 302 302 301 300 299 300 300 300 300 301 300 299 299 299 299 300 301 304 306 305 303 303
294 294 292 292 296 298 300 301 301 303 307 308 309 309 308 306 305 304 303 302 303 301 300 300 300 299 298 298 298 299 300 299 298 298 298 297 298 297 298 299 301 302 302 301
295 293 290 290 296 295 297 300 302 301 303 304 304 304 306 305 302 303 301 301 301 300 300 299 298 297 297 298 298 298 298 298 296 296 296 296 295 295 296 296 296 301 301 300

GFSCGP_sfc_thetae_102.txt.gz
Theta_e
301 298 297 297 299 301 300 308 314 317 325 320 318 319 320 326 325 325 325 326 327 330 336 338 340 341 341 341 341 342 343 345 344 343 342 341 341 347 349 348 350 349 351 350
297 296 301 303 302 302 303 312 313 318 322 321 319 319 322 325 323 325 324 325 327 331 332 336 337 339 338 337 341 341 343 344 343 343 343 344 344 346 348 348 350 351 349 347
296 299 303 302 300 299 298 304 313 314 319 321 318 315 318 325 327 326 326 326 328 329 331 333 336 336 337 337 339 340 342 343 343 345 344 343 344 345 345 347 347 350 349 346
298 302 301 299 299 300 293 303 318 314 310 304 316 302 315 320 322 326 325 323 326 330 334 333 335 336 336 337 339 341 342 343 343 345 345 343 340 339 343 345 347 350 352 351
297 298 298 297 299 299 299 305 315 315 308 305 308 302 307 319 318 321 324 326 325 328 333 332 334 336 338 338 337 340 341 340 344 344 344 342 341 341 342 346 348 350 352 353
299 301 300 300 302 302 306 313 309 308 304 297 303 303 302 309 316 321 323 325 324 328 332 334 336 337 338 338 338 341 340 339 342 342 342 341 341 340 341 342 345 347 349 351
296 297 299 301 295 297 299 299 294 294 294 295 301 303 302 315 319 324 324 326 324 328 331 333 334 334 335 337 337 340 340 339 341 342 341 341 340 340 340 342 344 345 347 349
290 289 298 300 298 294 296 297 294 288 290 293 305 299 305 319 324 327 329 329 326 328 332 333 335 335 335 339 339 340 340 339 342 343 342 342 340 342 342 345 345 346 347 349
289 292 301 300 299 300 294 294 300 294 291 296 300 304 313 322 322 325 327 329 328 327 330 331 335 336 336 337 341 340 341 340 341 343 343 343 343 343 343 345 346 348 348 350
292 289 296 302 302 301 298 299 292 290 287 288 296 299 301 315 320 322 324 326 329 333 333 334 333 336 338 339 340 344 342 339 341 342 344 344 344 345 347 346 346 345 347 348
295 292 294 296 294 296 297 294 292 293 292 290 291 297 313 314 321 321 323 326 328 331 334 336 337 337 338 342 342 344 343 343 343 344 343 345 345 346 347 347 347 348 351 349
295 291 289 294 297 299 297 295 294 291 290 293 294 297 319 321 322 323 324 326 329 331 334 337 338 337 337 340 341 341 341 343 343 344 345 346 348 348 346 347 347 350 351 350
294 290 288 292 292 296 292 292 293 293 297 295 293 296 321 320 321 322 323 325 326 327 329 331 334 336 337 338 339 340 340 340 341 342 341 341 339 341 341 344 347 349 350 350
302 290 291 288 289 291 292 293 294 292 290 294 295 306 315 316 316 320 322 322 323 325 326 327 328 331 337 338 337 338 339 340 340 340 339 339 337 338 340 341 342 343 348 350
294 290 290 293 295 295 293 293 294 293 294 297 300 306 312 315 317 319 320 320 320 321 322 324 324 326 330 333 334 336 338 341 341 340 340 338 339 340 339 338 339 339 341 343
293 290 290 294 297 295 293 298 296 304 303 305 306 305 315 319 318 318 318 317 317 318 319 321 322 325 326 327 328 329 331 334 338 340 338 338 337 337 335 336 336 336 338 339
293 290 289 287 294 294 289 293 296 297 308 307 303 308 315 314 315 317 317 316 316 317 318 319 321 322 324 325 325 324 327 329 329 329 331 332 333 332 330 332 332 333 334 337
295 290 288 288 290 285 296 298 304 308 310 311 310 314 316 315 315 318 318 314 314 315 317 319 320 318 318 318 318 318 318 318 318 318 320 326 330 327 327 327 328 329 330 333
292 292 289 288 287 293 297 297 296 300 305 313 312 315 315 313 312 310 315 315 312 312 313 316 316 315 315 315 315 315 315 315 315 314 315 317 321 321 321 321 323 326 325 325
291 291 291 286 284 285 296 301 304 307 294 315 315 313 310 313 305 306 311 311 310 312 314 313 312 311 310 310 311 310 309 310 310 311 311 314 316 316 318 320 321 324 323 323
286 286 284 285 285 289 297 302 304 292 292 314 316 314 312 309 309 306 310 308 309 311 311 310 310 308 307 307 307 305 305 305 308 309 309 309 310 311 312 314 315 316 318 318
288 284 284 283 283 282 300 301 295 297 305 314 312 311 307 307 307 307 306 307 307 306 307 308 306 304 304 305 304 302 302 304 306 306 306 307 307 309 309 310 311 311 311 311
287 290 289 290 288 296 299 299 302 301 305 308 309 309 309 307 307 308 308 307 306 305 304 305 303 302 303 303 303 301 302 304 303 303 303 303 305 305 307 307 306 305 307 307
292 294 292 293 296 298 300 302 303 306 306 309 310 310 310 307 308 307 306 304 304 304 303 303 302 301 300 302 302 302 302 303 302 301 301 301 301 301 302 304 305 304 303 304
293 293 292 292 296 298 301 301 302 306 308 308 310 310 309 307 307 307 304 303 303 302 302 302 301 300 299 301 301 301 301 301 300 300 299 298 298 298 299 300 301 302 302 302
295 292 290 291 295 295 297 300 303 303 306 308 308 308 310 309 306 307 305 305 303 302 302 302 300 299 299 299 300 300 300 300 299 297 297 297 297 297 298 298 298 299 299 298

GFSCGP_sfc_thetae_105.txt.gz
Theta_e
308 309 309 313 308 308 314 312 315 322 325 322 321 323 323 325 328 329 330 331 334 336 341 344 345 347 348 350 351 352 354 358 355 353 351 351 350 354 356 359 358 358 359 359
305 304 312 310 307 307 318 318 316 319 321 321 319 319 326 327 327 330 330 332 333 334 338 342 344 346 346 348 351 353 355 357 356 354 354 353 354 354 360 360 360 360 359 358
302 306 311 307 305 306 306 310 316 316 320 322 317 315 319 325 326 329 329 333 334 334 336 340 340 344 346 347 350 352 355 356 356 357 355 354 355 356 356 357 357 359 358 355
308 307 308 304 304 306 304 308 320 315 313 308 317 303 315 321 322 326 327 328 332 335 338 340 341 343 345 347 350 353 355 357 356 357 356 356 351 355 362 363 357 357 359 357
304 305 304 303 304 306 304 310 319 318 314 313 312 307 313 321 319 322 325 329 331 335 337 339 341 343 345 347 348 351 354 357 356 357 358 353 353 354 359 356 359 358 363 360
305 307 308 307 308 307 318 317 317 316 313 304 311 310 309 316 321 325 327 328 331 333 337 338 342 343 344 347 347 349 352 354 357 356 356 357 355 354 351 353 354 361 358 363
302 303 306 307 304 306 312 310 303 301 302 299 308 310 313 320 323 327 327 329 331 333 336 338 340 341 343 344 346 347 351 351 354 354 354 355 356 357 355 354 352 354 354 356
297 295 304 306 305 302 307 308 302 295 297 300 310 306 313 321 326 329 332 332 333 333 334 338 340 341 342 343 345 346 348 350 353 353 354 355 356 354 352 354 353 354 356 361
297 297 306 305 307 307 302 299 308 303 305 304 308 311 317 324 326 327 329 331 329 330 334 337 340 342 341 340 345 346 347 349 351 351 354 354 354 354 354 356 357 355 359 357
302 296 304 306 306 306 306 308 300 303 298 297 305 307 309 318 320 325 328 329 330 332 335 336 337 341 343 342 345 346 348 347 349 352 353 354 355 356 356 356 356 357 358 360
304 301 302 305 303 302 303 302 303 305 303 300 300 306 318 321 324 326 329 331 332 332 334 337 340 342 343 344 346 348 350 350 345 350 354 355 355 356 357 356 357 357 358 359
303 303 300 302 305 306 306 305 306 299 300 305 305 307 324 324 327 326 328 332 335 336 337 340 340 341 342 341 343 347 348 348 350 350 352 352 355 356 355 355 357 358 357 360
304 300 298 299 301 303 302 302 305 306 308 305 301 306 323 326 325 328 327 330 330 333 336 337 340 340 341 340 340 345 345 346 350 350 350 353 354 355 356 356 357 360 359 360
308 301 301 296 299 301 299 299 303 306 302 304 305 310 317 320 322 324 326 328 329 330 331 332 337 338 338 338 338 340 342 343 344 344 344 344 350 351 350 352 353 355 359 360
304 299 300 300 299 300 300 304 300 302 304 304 308 312 318 319 320 322 324 324 324 326 328 327 329 337 339 340 336 334 339 341 341 341 340 338 341 346 347 348 348 350 354 355
303 300 300 299 301 300 298 305 306 306 305 309 310 313 323 322 324 321 322 322 322 323 324 324 327 329 332 336 336 337 339 341 341 340 339 341 341 345 342 344 344 346 348 350
302 302 300 296 300 301 296 299 307 309 312 312 310 316 323 318 319 319 320 322 322 322 322 323 324 324 324 327 329 329 331 333 332 333 336 338 334 334 336 339 340 341 343 345
302 301 299 298 300 292 300 304 308 312 314 316 316 318 321 320 320 321 324 321 320 321 321 320 319 319 320 320 319 320 320 321 322 323 327 329 330 330 333 332 331 332 336 339
302 302 297 294 296 299 300 301 302 304 306 317 317 318 318 319 318 316 321 324 324 324 318 316 315 317 317 316 318 318 317 320 319 317 318 321 325 326 328 326 326 328 330 334
301 303 299 296 291 291 301 304 308 311 302 318 319 316 316 316 309 309 317 318 320 318 316 314 314 313 313 314 315 313 313 313 311 313 314 318 321 325 325 327 328 327 329 326
296 296 295 294 293 296 303 307 308 297 300 315 321 320 317 318 321 315 314 315 318 315 313 313 312 311 311 313 313 312 313 311 312 313 312 314 317 317 318 319 321 323 322 319
296 294 295 293 292 291 306 307 302 307 311 316 323 322 321 316 317 315 312 314 316 315 313 312 313 313 314 315 314 313 312 314 314 315 315 316 317 317 317 316 316 318 321 319
296 299 299 298 298 306 308 307 310 310 310 315 321 320 316 314 314 313 314 314 316 316 315 315 313 312 312 313 313 311 311 312 312 312 312 312 313 314 315 315 314 313 316 313
301 302 302 301 303 305 308 311 313 313 313 315 319 316 316 314 314 313 312 311 312 313 312 312 311 310 309 310 311 310 310 311 311 309 309 309 309 309 311 311 311 310 310 309
303 303 301 302 305 306 307 309 310 313 315 316 317 316 315 315 313 312 309 307 306 307 310 311 310 309 308 309 309 309 310 310 307 306 306 306 306 306 305 306 307 306 303 303
305 303 303 302 305 307 306 308 309 310 312 315 315 313 315 315 313 311 308 307 305 305 307 308 309 309 308 308 308 308 310 309 306 305 304 304 304 304 304 303 302 298 297 296

GFSCGP_sfc_thetae_108.txt.gz
Theta_e
310 309 313 319 317 315 320 319 316 322 327 322 322 321 323 327 331 331 332 334 335 336 342 346 346 346 349 352 354 356 355 359 357 354 351 351 350 353 355 356 360 361 363 363
306 304 315 322 316 313 317 317 319 322 325 322 319 321 321 324 327 332 332 332 334 335 339 343 346 347 347 350 353 356 357 360 362 355 355 353 354 353 354 357 359 361 362 363
304 307 318 316 312 311 318 316 319 318 321 320 317 314 320 323 327 332 333 335 336 337 338 341 344 347 347 349 353 355 358 358 360 360 358 357 364 363 362 360 354 357 361 361
307 311 313 315 310 312 310 316 321 319 317 308 317 307 316 320 321 329 331 334 335 336 340 342 343 345 347 349 354 357 359 359 358 363 358 359 354 354 350 352 355 358 362 359
306 308 311 312 313 311 309 312 317 319 315 315 314 309 311 321 318 322 327 332 335 337 338 340 344 346 347 350 352 356 360 361 360 363 363 360 353 350 352 353 359 361 362 360
309 315 314 312 314 310 314 313 315 317 314 306 313 313 309 316 324 323 328 332 334 336 339 341 344 346 347 349 351 353 358 360 360 361 359 359 356 355 358 354 360 353 354 357
307 308 312 313 310 313 312 312 304 301 303 303 314 312 313 321 326 330 328 330 333 336 338 340 342 344 347 349 350 352 356 358 359 358 358 358 358 357 356 356 353 356 353 356
301 299 308 311 310 308 310 311 305 297 299 304 312 308 315 324 330 333 335 334 335 336 337 338 342 345 346 349 351 352 354 357 358 358 359 360 361 353 362 357 355 353 362 354
301 301 310 311 311 310 309 307 314 308 310 305 308 313 321 324 327 330 333 335 334 336 337 338 342 345 347 349 351 352 353 356 357 356 359 359 359 357 363 357 365 357 361 358
306 300 307 309 311 311 310 313 306 307 300 300 307 308 310 321 323 328 330 332 335 335 337 339 341 345 348 349 350 352 354 355 355 355 357 355 356 359 359 359 357 361 362 363
308 305 305 308 305 304 306 305 307 308 307 302 301 306 322 323 326 328 330 333 336 337 336 338 343 346 348 349 347 348 354 355 353 355 356 356 355 354 359 360 357 359 362 366
310 307 303 304 310 310 310 307 307 301 302 307 306 308 327 327 330 332 334 336 338 339 338 340 340 342 344 348 350 348 350 351 355 355 355 357 356 355 353 356 356 359 358 363
310 305 300 302 307 309 307 308 309 309 308 305 302 306 328 330 330 332 331 335 338 338 339 341 340 341 346 345 345 349 350 351 355 355 355 355 356 353 354 356 358 358 359 358
308 306 304 299 302 307 304 306 308 308 304 305 306 310 323 326 328 330 332 334 337 338 339 342 344 342 341 346 342 343 344 346 352 353 353 355 356 353 356 357 359 358 358 359
309 304 305 306 305 305 305 305 306 306 308 305 307 309 317 327 328 329 330 330 332 334 334 336 341 343 343 344 341 341 342 344 344 344 350 352 356 358 357 357 358 358 360 360
308 304 306 303 304 304 303 307 308 307 308 309 310 311 326 331 330 327 327 328 329 330 331 331 333 342 343 342 342 342 340 342 344 342 341 340 344 345 350 353 354 355 355 359
306 306 304 300 304 304 300 305 309 311 313 314 308 318 328 326 324 324 326 329 327 328 330 328 326 331 340 341 341 339 343 345 343 343 341 339 340 337 339 342 347 350 351 353
306 305 305 299 304 295 305 310 311 313 316 318 319 322 327 326 326 327 329 327 327 327 324 323 322 320 329 334 339 337 338 336 334 333 335 337 337 337 335 336 338 341 347 349
309 306 301 297 298 303 304 306 307 308 310 320 320 322 325 324 324 322 328 328 328 325 324 320 318 319 320 321 323 323 322 324 324 325 327 330 330 333 336 335 337 338 335 344
306 309 303 301 295 294 304 308 312 312 306 322 323 322 321 321 314 315 328 328 325 323 317 315 316 316 315 317 319 317 317 319 317 319 324 328 329 331 332 333 336 340 334 328
301 302 296 299 297 301 308 310 312 301 305 315 323 323 321 319 324 326 327 325 324 319 316 316 313 312 314 315 315 314 314 313 314 315 320 323 328 329 332 333 337 334 326 324
301 298 298 300 295 294 311 311 307 312 317 318 323 325 321 320 322 323 323 319 321 319 318 317 312 312 315 316 317 315 314 317 319 319 318 320 323 324 325 328 330 328 325 323
300 304 303 302 303 310 313 312 317 319 318 318 324 326 323 323 322 320 321 318 316 314 315 316 313 313 316 319 319 317 317 321 322 321 321 322 323 324 325 325 325 323 325 322
306 309 306 305 309 310 311 315 317 319 320 323 325 325 324 321 319 318 320 317 316 315 312 314 314 314 313 317 319 319 319 320 319 318 318 319 319 319 319 318 319 319 319 319
309 309 304 305 310 311 312 314 316 318 321 322 322 323 323 323 319 319 321 319 319 317 317 316 316 314 315 316 316 316 317 317 315 316 315 314 314 315 314 309 311 309 304 305
310 306 304 306 312 314 312 314 315 316 318 321 321 319 321 322 319 318 316 314 312 316 316 316 316 315 315 315 314 315 316 315 313 311 311 310 310 310 309 306 302 297 297 295

GFSCGP_sfc_thetae_111.txt.gz
Theta_e
311 308 310 319 322 317 317 317 315 320 327 320 319 320 319 329 330 327 328 330 333 334 338 340 342 344 346 349 351 353 356 358 356 353 353 352 357 353 356 356 360 360 361 361
308 305 314 320 321 317 314 316 316 322 325 318 318 319 322 325 331 330 329 330 333 334 335 340 341 343 344 348 352 354 357 359 361 355 359 354 352 358 356 356 360 360 362 362
307 309 313 317 318 314 315 317 318 319 320 321 316 314 317 324 330 332 330 331 332 333 334 337 341 342 345 346 350 353 359 359 360 359 359 358 360 362 355 358 355 358 360 361
309 312 311 314 316 317 309 323 320 320 317 310 319 303 313 319 323 326 329 330 331 336 335 338 342 343 343 347 350 355 357 360 358 364 361 361 351 352 352 353 355 361 360 359
307 308 309 313 316 317 313 318 322 320 316 314 313 309 310 317 315 321 328 330 332 335 338 338 339 343 344 348 349 352 357 361 361 361 360 356 356 353 352 358 361 362 362 361
310 314 313 314 319 318 317 315 318 318 314 307 312 310 310 316 318 322 327 332 331 333 337 339 343 343 343 346 348 351 356 359 361 360 359 359 356 356 354 355 354 354 356 357
308 310 314 317 313 315 314 313 309 304 305 306 314 311 312 321 324 327 328 330 335 335 334 337 340 339 344 346 346 349 355 357 358 358 357 357 359 355 355 357 354 354 352 354
302 301 311 314 313 310 313 313 307 299 301 304 315 308 312 322 328 329 331 331 334 336 337 337 338 340 345 345 347 347 354 356 357 356 358 359 359 354 354 356 352 352 357 353
303 303 312 313 314 314 311 310 318 308 309 307 310 316 323 327 327 331 331 331 331 336 336 338 341 344 345 346 348 349 355 356 356 355 358 359 359 358 357 358 360 359 362 358
308 302 310 311 313 313 311 316 308 310 300 297 306 307 310 321 325 329 331 328 332 335 337 338 339 341 346 347 348 351 354 356 356 355 356 356 356 358 358 359 358 360 350 363
310 307 306 309 307 307 307 307 310 311 308 301 300 307 323 324 326 327 331 334 334 336 338 340 340 342 347 348 350 350 352 356 356 355 357 356 354 354 357 357 358 359 360 361
310 307 302 306 311 312 311 308 309 303 304 307 304 305 321 329 330 331 332 335 337 338 339 340 341 347 350 351 353 354 353 354 356 359 361 356 357 355 352 355 356 360 360 361
311 305 301 302 308 310 306 309 310 309 309 305 302 308 328 331 332 334 333 336 338 339 340 339 340 347 349 350 352 352 353 355 357 358 356 356 360 354 354 354 355 358 361 361
313 306 305 298 303 308 306 307 309 308 303 305 305 315 324 328 329 333 336 336 339 341 342 341 342 342 345 348 351 352 351 355 355 354 353 360 360 357 355 357 356 356 359 360
311 304 306 306 307 310 308 307 307 307 308 305 308 309 320 328 331 333 335 337 339 340 341 342 342 344 347 347 345 343 344 344 346 346 350 351 360 363 361 360 359 357 357 359
311 304 307 305 306 307 306 308 308 308 308 308 309 309 323 331 335 333 333 334 334 335 337 342 344 345 344 347 344 343 343 348 347 346 347 351 356 352 358 359 355 360 358 358
308 306 304 301 305 305 302 306 308 309 311 310 307 317 321 330 330 330 329 331 331 334 333 334 338 341 347 346 345 345 346 349 347 347 346 343 347 341 343 346 352 355 354 357
308 307 306 302 305 296 306 314 313 312 314 317 317 322 328 331 332 331 333 333 332 332 330 331 326 333 340 344 345 343 345 344 347 344 343 342 340 337 337 338 338 340 345 352
311 308 303 299 301 300 304 310 309 310 312 320 320 324 329 330 329 326 331 334 333 331 328 326 324 322 326 333 338 339 342 339 335 331 333 338 340 340 339 335 334 337 342 339
310 310 305 302 298 291 301 310 314 314 306 315 323 324 325 324 320 322 330 329 329 330 325 319 319 319 319 321 329 326 324 325 323 327 329 332 334 334 338 341 342 344 339 334
301 301 300 300 299 303 310 309 313 300 306 317 323 325 324 321 326 331 328 328 326 321 317 318 317 314 315 317 318 315 315 314 317 319 326 331 334 336 337 338 339 334 328 327
303 299 299 302 295 295 314 312 306 314 318 319 323 326 326 322 328 326 323 324 319 316 315 314 313 315 317 317 315 315 315 318 319 320 321 324 330 330 333 336 334 330 325 323
300 305 305 305 305 313 315 315 318 320 320 322 322 326 328 326 324 321 321 321 318 318 316 316 314 314 317 320 318 314 319 323 323 321 321 323 325 327 331 331 331 327 329 329
308 311 305 307 311 312 313 316 318 320 321 324 325 326 327 324 323 320 321 320 321 321 320 318 317 315 314 320 318 319 319 323 324 322 323 324 324 324 326 325 326 325 324 324
309 311 306 307 313 313 314 316 317 318 321 323 326 325 324 324 322 319 319 318 316 314 314 317 317 317 315 318 317 318 321 322 321 321 320 321 319 321 313 306 308 312 303 300
311 308 306 305 314 315 315 317 316 316 318 321 322 323 324 323 321 321 317 317 316 314 315 315 315 316 316 316 316 318 321 320 318 316 316 315 316 315 314 309 302 296 296 295

GFSCGP_sfc_thetae_114.txt.gz
Theta_e
312 307 304 311 320 319 317 317 315 319 324 320 316 316 322 328 329 329 328 327 331 333 336 338 342 346 344 348 352 356 351 363 358 357 347 354 357 357 351 362 364 366 364 367
307 303 310 315 319 317 318 317 315 321 323 319 316 316 322 325 327 330 328 330 331 332 334 337 340 343 343 349 352 356 358 362 360 361 355 352 359 353 358 365 366 355 364 368
306 307 311 312 315 315 317 316 317 316 319 319 316 312 315 320 326 329 332 332 332 334 332 336 339 341 346 350 351 355 357 362 363 362 359 349 353 360 356 358 359 361 364 366
307 312 310 309 314 318 312 323 319 318 313 308 317 303 312 316 320 325 329 331 332 331 336 337 337 338 343 350 352 356 359 362 360 363 362 352 352 353 359 358 359 357 365 361
304 308 308 307 310 320 312 321 321 317 314 312 312 307 311 315 314 321 327 330 333 336 334 337 336 340 340 345 351 356 359 362 364 367 358 359 364 360 361 360 357 370 368 361
308 313 311 311 316 318 319 320 316 314 311 305 311 309 308 312 315 320 327 331 332 332 336 338 339 341 346 346 350 353 357 359 361 364 361 364 354 347 357 357 357 356 359 362
306 309 312 314 311 318 315 313 307 302 304 304 313 310 311 319 323 322 324 329 333 332 335 335 338 342 344 344 349 353 358 356 359 361 360 359 354 349 358 359 359 351 357 358
301 300 309 314 312 312 311 311 306 298 300 303 312 306 312 321 326 327 328 329 334 334 337 337 336 341 341 344 346 351 356 357 358 359 362 362 360 358 358 363 355 352 351 361
303 301 312 314 315 314 310 307 314 310 307 305 305 310 318 323 323 324 326 330 331 333 335 337 343 342 342 344 345 355 356 357 357 357 361 362 363 362 364 362 348 354 361 359
308 302 309 312 313 313 311 314 306 310 300 297 303 306 308 318 320 326 326 329 332 333 334 336 339 342 339 341 344 355 357 357 357 356 358 358 360 362 366 366 361 359 357 350
310 306 305 310 307 306 306 306 308 309 308 300 299 307 320 320 318 327 328 330 331 331 333 338 338 341 343 346 349 352 354 356 355 356 356 358 356 358 362 362 364 365 351 346
310 306 302 305 311 312 310 307 307 302 303 307 306 306 320 323 327 329 330 332 335 336 338 341 342 340 343 349 349 342 351 351 354 356 355 358 357 359 357 360 361 361 363 360
311 305 299 302 307 311 306 308 309 307 307 305 300 307 323 325 327 331 331 334 335 337 338 340 338 341 341 347 343 341 338 349 357 353 358 354 356 357 360 359 361 364 364 366
314 307 304 298 303 308 307 308 307 306 301 303 304 312 316 320 328 330 334 336 334 334 340 339 345 345 335 338 352 355 356 357 361 358 356 358 357 353 353 358 362 361 366 362
309 303 305 305 307 307 307 308 308 305 307 303 306 313 319 325 329 333 336 338 335 338 338 338 341 346 349 348 347 347 348 344 344 346 345 353 353 351 354 353 357 364 361 363
310 303 305 303 306 308 304 308 309 308 307 307 308 309 322 328 319 319 335 338 338 337 336 341 344 344 346 347 347 344 343 345 343 342 346 350 354 354 348 349 350 359 363 361
306 306 305 300 305 304 301 306 307 309 310 309 306 319 323 317 314 316 331 336 336 336 339 339 340 345 347 345 347 344 345 347 347 347 349 350 349 346 346 344 347 344 354 357
308 307 305 301 303 295 305 312 312 310 315 318 319 325 326 320 317 326 334 333 333 334 333 332 333 336 346 346 345 346 348 347 349 347 346 345 343 340 338 338 339 341 343 346
310 307 302 298 294 302 305 310 308 306 306 316 316 324 317 327 328 326 333 336 331 331 330 326 324 328 328 335 341 345 340 342 341 340 342 343 343 340 337 334 336 339 337 333
309 311 304 302 296 291 304 311 314 312 304 317 317 321 316 324 315 322 331 331 329 328 325 322 320 319 322 326 328 329 326 324 325 329 334 336 337 340 341 340 338 338 334 327
302 305 299 300 298 301 308 312 313 298 306 317 319 322 320 318 323 327 329 325 324 322 318 318 317 316 316 319 319 317 320 318 321 324 326 332 332 333 335 335 336 333 330 326
297 296 300 302 299 295 312 311 303 315 317 318 319 323 324 328 327 326 324 321 317 315 316 316 315 314 316 317 316 314 315 319 320 321 322 324 327 332 333 330 329 329 327 325
300 305 303 302 304 314 316 314 317 318 318 320 321 327 325 325 323 324 319 318 316 314 313 315 315 316 317 317 316 316 319 321 321 321 323 322 325 328 331 330 330 325 325 321
307 311 304 306 311 312 314 316 318 318 317 319 323 325 327 323 324 320 318 317 316 316 315 315 314 314 315 317 318 318 319 322 320 320 321 321 322 312 308 313 324 315 314 325
310 312 306 306 312 315 314 316 316 317 319 320 324 326 326 325 322 320 319 318 318 318 317 318 317 316 316 317 317 320 321 321 319 320 321 319 319 314 306 298 299 304 297 297
310 308 304 305 316 316 315 317 316 315 316 318 320 324 326 324 321 319 316 314 314 315 317 316 317 317 316 316 316 318 321 324 321 319 318 318 320 319 315 308 299 296 296 295

GFSCGP_sfc_thetae_117.txt.gz
Theta_e
307 299 296 301 306 308 318 317 315 318 323 319 318 316 319 323 327 327 326 324 326 328 332 333 341 341 341 342 345 345 343 347 345 347 340 341 340 345 349 351 353 351 351 353
301 297 305 308 317 317 315 315 314 319 321 319 316 315 319 323 324 328 329 326 327 328 328 337 338 339 339 343 348 344 349 347 346 348 348 347 344 345 350 354 351 351 353 351
298 302 308 306 308 314 314 313 314 315 319 319 314 312 316 323 324 327 329 331 330 330 328 335 337 337 341 344 347 347 349 348 349 346 346 344 349 348 346 349 350 351 352 355
301 307 306 304 303 311 310 320 319 317 313 306 315 302 312 316 318 322 326 329 326 329 331 332 335 337 341 343 347 348 348 348 349 349 344 339 341 339 343 346 350 350 354 352
298 302 303 303 305 317 314 320 318 315 310 310 309 306 310 317 314 318 323 328 331 329 330 330 335 338 342 345 347 348 348 349 348 348 347 343 343 345 347 349 350 350 352 351
301 307 305 305 310 318 323 319 315 314 311 302 308 307 307 310 313 318 322 327 331 331 332 333 336 340 343 345 346 348 348 349 349 349 348 346 341 341 345 347 348 347 349 351
300 302 306 309 311 317 316 309 300 297 301 301 311 308 310 316 319 320 322 325 330 332 330 333 334 334 340 344 346 348 345 345 348 349 348 347 343 341 343 344 344 344 346 348
293 292 304 309 305 310 312 309 300 294 297 302 308 305 310 319 322 323 325 325 330 331 332 333 331 338 339 343 344 348 347 346 345 349 349 348 345 343 347 348 346 344 346 348
294 296 307 310 310 310 306 300 305 302 305 301 305 309 315 319 322 320 322 326 328 330 331 334 337 336 340 339 340 348 348 348 346 348 350 349 350 349 347 349 344 346 352 355
301 295 304 308 309 308 304 308 300 303 295 294 303 302 304 312 317 322 321 324 328 330 332 333 337 338 339 341 339 349 350 349 348 349 351 349 349 350 351 350 342 348 348 343
301 298 300 305 300 299 299 297 298 302 303 297 296 303 316 315 320 322 324 324 327 331 330 333 337 339 339 340 339 349 349 348 348 349 349 348 349 351 350 351 350 351 345 338
304 297 293 298 306 308 303 298 298 291 291 300 300 302 321 319 324 324 325 328 328 332 331 331 335 337 336 336 340 348 350 349 348 348 349 349 349 348 351 349 350 349 340 341
303 298 291 296 302 308 303 302 301 297 294 292 294 301 320 323 319 320 324 329 330 329 332 333 335 337 341 338 343 341 344 344 345 348 348 348 347 348 348 349 348 350 349 350
309 297 294 290 294 301 301 304 305 300 290 293 295 307 313 315 319 322 326 329 330 330 330 334 335 337 339 341 341 338 338 342 339 339 342 344 344 344 346 348 349 350 352 351
301 294 297 299 302 303 303 303 304 301 306 297 301 307 314 318 322 322 330 329 330 331 331 335 335 335 336 336 338 343 344 341 344 343 344 342 345 346 346 349 348 349 351 350
304 297 300 299 304 305 302 306 306 309 308 307 308 313 320 323 321 321 321 332 329 332 335 338 335 335 334 335 335 343 341 342 343 343 340 344 343 343 342 343 344 347 347 346
300 299 297 293 302 302 299 303 305 307 310 308 308 313 315 314 317 318 321 332 332 330 334 336 339 339 334 337 341 340 340 342 339 340 343 343 339 337 336 340 341 343 346 346
301 301 299 293 296 288 303 309 309 308 311 315 316 320 315 314 314 316 325 330 330 330 328 328 329 334 342 344 342 342 343 342 341 342 339 339 337 336 335 335 339 342 341 337
307 301 295 294 293 297 303 306 305 303 307 314 317 318 320 324 325 325 330 330 326 325 323 323 324 328 332 341 341 340 337 339 339 337 337 336 335 333 334 336 336 332 328 324
305 302 298 295 293 289 299 308 311 310 302 316 319 315 314 317 310 317 325 324 322 322 322 320 320 324 325 327 330 328 325 326 327 332 334 337 336 335 333 332 334 331 326 322
296 296 293 294 293 299 309 309 312 298 302 315 320 318 315 311 320 320 320 318 318 316 317 318 316 316 318 320 323 320 321 319 322 326 331 331 333 332 333 333 332 327 321 318
294 294 295 295 292 292 312 312 302 307 313 316 322 320 319 322 321 319 316 315 315 316 316 316 314 315 318 319 319 317 317 320 322 324 325 327 331 333 330 327 327 326 321 317
296 299 298 299 297 310 312 310 310 312 312 313 320 322 319 320 319 318 315 314 314 314 315 316 316 315 316 318 318 316 318 321 321 322 323 323 314 314 323 326 325 323 322 320
306 307 299 302 306 310 312 314 314 315 314 317 323 322 323 319 318 316 314 313 312 313 314 316 316 314 315 317 317 318 320 320 319 319 319 313 307 303 304 308 304 304 303 310
307 306 302 301 307 310 313 312 312 315 316 318 323 324 323 319 316 315 314 315 315 315 316 315 314 313 313 315 316 319 320 320 319 319 318 315 307 301 296 295 300 300 295 296
307 305 300 301 311 310 311 313 315 313 313 316 322 321 322 320 318 316 315 314 314 314 316 315 313 313 312 312 312 314 318 319 317 317 316 317 313 309 305 301 296 297 297 297

GFSCGP_sfc_thetae_120.txt.gz
Theta_e
302 297 294 299 300 308 317 315 313 317 322 317 317 318 321 323 325 327 327 321 326 328 334 340 341 341 342 342 341 340 342 342 341 343 341 340 340 342 348 348 349 350 349 352
299 296 301 304 305 310 316 314 314 318 321 319 317 315 320 322 324 327 328 328 325 325 333 335 336 340 341 341 340 341 343 341 342 342 344 342 342 343 347 351 350 351 350 351
296 300 307 305 302 311 313 312 312 313 318 318 315 311 315 321 325 326 329 331 327 328 331 333 334 336 340 339 341 343 343 343 346 346 343 345 344 345 344 344 346 346 350 351
298 304 304 304 302 312 305 320 318 316 312 305 315 301 311 316 319 323 326 327 329 328 333 333 333 336 341 341 344 344 345 345 345 346 340 341 338 337 340 343 346 348 350 351
296 299 300 300 302 316 313 321 318 316 310 309 309 304 307 316 314 319 324 328 330 331 333 332 333 337 341 343 344 345 347 344 345 345 342 338 338 339 343 344 346 346 348 349
299 303 301 303 313 318 321 316 314 314 309 300 307 306 305 309 314 319 324 327 329 330 332 333 335 338 340 343 344 344 345 342 344 345 345 341 342 340 342 344 344 345 345 347
297 299 308 322 315 319 316 308 300 299 298 298 310 307 308 317 319 320 322 325 328 330 331 332 334 336 339 341 343 344 345 342 344 345 345 343 341 341 343 344 344 343 343 345
291 290 302 314 314 309 309 304 298 292 296 300 309 302 307 319 319 322 325 327 329 331 331 331 335 337 339 341 343 345 342 344 345 345 344 345 342 339 343 344 344 344 344 345
291 294 305 307 312 313 306 303 307 299 301 299 304 309 316 317 320 320 322 325 327 331 331 332 334 338 340 340 343 345 342 343 342 346 345 344 343 340 344 347 344 343 346 350
296 293 299 305 308 313 305 307 299 300 292 293 301 302 304 311 316 317 320 322 324 329 330 331 333 337 338 343 344 345 345 344 343 344 347 346 345 347 347 346 341 343 346 346
297 295 297 300 297 298 297 295 294 298 298 295 296 301 313 313 318 318 319 323 322 326 329 331 333 335 339 342 343 346 346 346 343 346 346 344 345 347 348 347 342 345 344 339
300 295 291 295 302 306 298 295 292 289 288 296 298 300 315 315 321 322 322 322 324 327 332 333 334 335 336 337 338 346 347 346 345 346 346 345 345 347 346 346 348 349 343 342
299 294 290 293 298 302 301 301 298 293 289 288 291 294 317 317 320 323 323 326 325 328 331 333 335 334 335 335 339 345 346 346 346 346 346 344 344 344 345 345 347 348 342 339
306 292 294 289 294 299 298 301 302 297 294 295 292 296 312 316 318 320 322 327 328 327 330 329 332 334 334 338 341 343 345 343 343 343 344 345 343 345 344 346 346 346 346 346
298 292 295 296 303 304 304 304 306 302 301 299 305 306 310 316 319 322 326 329 328 328 330 328 331 336 337 339 340 340 339 340 339 338 338 340 342 343 344 344 342 345 348 347
299 292 296 295 302 303 301 305 307 307 307 306 310 308 315 318 320 322 326 328 329 329 330 334 334 337 337 340 340 340 340 340 341 338 340 342 343 342 342 343 344 344 344 344
296 294 293 290 299 299 296 300 305 307 312 310 307 312 313 310 315 316 322 324 327 329 331 332 334 334 336 335 342 340 340 343 341 340 341 342 340 338 338 340 340 340 341 338
295 294 293 289 291 287 298 305 308 308 310 314 314 317 317 315 323 325 327 325 324 325 327 325 326 333 335 339 341 342 342 341 340 340 340 338 336 335 335 338 339 340 338 332
298 295 291 290 288 294 302 304 304 302 304 316 313 314 315 316 320 321 324 324 323 322 322 322 324 327 336 340 340 341 340 338 339 337 337 335 336 335 335 330 328 324 328 325
297 297 296 290 288 287 297 307 309 308 298 315 316 313 313 312 305 315 319 319 319 319 319 318 320 322 325 333 338 333 332 336 336 335 335 335 334 333 333 332 328 324 320 315
291 291 290 291 290 296 305 308 309 294 296 312 319 317 312 311 317 318 318 314 316 317 316 317 317 316 319 325 330 326 327 326 329 332 334 335 334 335 332 333 326 322 319 316
290 289 290 291 288 287 309 309 300 303 308 312 319 319 319 319 318 315 312 312 315 315 315 315 316 317 319 321 325 322 320 323 327 329 329 330 332 332 330 327 322 319 315 311
293 295 294 294 293 303 308 307 308 309 309 314 317 320 321 319 318 314 312 313 313 314 314 315 315 315 318 320 321 319 320 323 324 322 317 316 315 315 321 324 323 321 318 315
300 300 298 297 300 304 309 311 311 311 313 318 319 315 318 315 314 310 311 310 312 314 314 313 315 314 314 317 319 320 320 321 320 313 310 308 306 305 307 304 304 305 308 318
301 301 297 298 303 306 310 312 311 312 320 322 322 321 319 315 312 310 308 311 312 313 311 314 311 310 312 315 316 318 319 320 317 314 309 305 302 299 297 297 299 299 296 298
302 299 296 296 303 304 306 309 312 311 315 321 321 318 318 316 312 311 310 313 313 312 314 312 311 311 312 313 312 313 318 318 317 316 314 310 307 303 300 297 297 297 297 297

GFSCGP_sfc_thetae_123.txt.gz
Theta_e
300 296 294 298 299 305 313 313 313 316 319 315 315 317 320 323 325 326 327 324 328 330 334 337 339 341 339 339 337 335 339 339 342 340 338 338 339 342 344 346 345 346 348 348
296 294 300 302 302 310 314 313 313 317 320 318 316 315 320 323 323 326 326 326 327 330 330 335 337 339 338 337 338 336 340 338 341 339 341 339 339 340 347 350 347 346 348 349
294 299 304 303 301 312 310 310 312 313 317 318 315 310 314 321 324 327 327 328 326 329 330 334 335 337 337 337 337 338 340 338 343 343 343 342 342 343 342 343 343 347 348 350
296 302 303 300 300 308 300 318 317 315 312 305 315 301 311 316 319 322 324 326 324 329 333 334 334 336 336 338 339 340 340 341 344 343 341 340 337 337 339 341 343 344 349 349
295 297 298 298 300 310 311 319 317 315 310 310 308 304 307 315 313 318 322 326 327 331 331 331 333 336 339 340 340 341 340 342 342 341 341 339 337 337 340 342 342 343 345 347
298 301 299 300 309 314 320 313 313 312 308 296 307 305 306 310 313 318 323 326 328 330 331 332 334 338 338 340 341 342 341 341 342 342 340 339 338 338 339 340 341 342 343 346
298 297 315 320 314 317 312 303 296 296 297 294 307 306 307 315 319 320 322 325 329 330 332 331 331 335 338 337 340 342 342 340 340 342 342 341 340 340 341 340 341 340 342 343
292 290 312 317 313 310 308 303 298 291 293 299 308 302 305 316 322 322 324 325 329 330 332 330 331 335 338 339 340 342 341 340 339 341 342 341 341 340 341 343 342 342 343 343
292 295 302 316 314 314 308 301 304 300 299 296 303 309 313 316 318 319 321 324 327 330 330 331 332 335 337 339 341 341 342 340 341 341 341 342 341 338 340 344 343 342 344 346
295 292 298 304 314 313 307 309 298 300 293 290 300 302 302 310 312 317 319 323 326 330 332 332 333 335 337 339 341 343 342 342 343 343 342 342 341 339 340 344 344 342 342 346
296 294 295 299 295 302 296 294 294 297 297 293 294 298 310 310 315 316 320 324 326 328 331 331 332 337 338 338 340 342 342 342 341 342 343 342 342 343 345 344 343 341 344 343
299 293 291 294 300 304 300 295 291 289 287 294 298 297 315 314 319 319 319 324 328 330 330 331 333 334 336 338 341 342 343 342 343 343 344 342 342 344 345 344 344 340 344 341
298 293 290 293 298 303 299 299 294 290 288 289 290 293 316 318 319 318 319 323 325 327 328 331 332 332 335 338 340 342 343 343 344 343 344 343 341 342 343 343 346 344 344 342
304 292 294 287 291 296 299 303 303 295 293 292 292 303 310 315 317 320 323 324 323 324 326 330 331 332 334 336 336 342 343 345 344 344 344 343 341 342 342 343 343 344 342 340
298 292 296 294 302 304 304 303 305 300 298 296 304 304 308 313 318 323 326 329 327 325 328 329 330 332 333 335 336 342 340 341 343 343 343 342 342 342 342 343 344 344 345 345
296 291 295 295 302 303 301 304 306 306 308 308 307 305 312 314 321 321 322 327 326 326 328 329 331 334 334 335 337 340 339 338 340 340 339 338 340 340 338 338 340 340 341 342
295 292 291 288 296 297 294 299 304 306 309 308 302 306 316 318 320 319 321 324 325 327 330 330 331 335 336 337 340 339 339 340 338 338 339 340 340 339 338 339 339 338 340 337
294 292 290 288 289 285 297 304 308 308 310 312 313 314 318 321 321 321 323 322 324 324 324 326 329 332 332 337 340 340 341 340 337 336 339 339 337 337 337 337 336 338 340 330
295 293 290 289 286 293 300 303 302 301 302 312 310 313 314 318 318 318 321 321 321 321 322 322 324 327 336 337 339 339 339 339 338 337 337 336 336 335 335 331 327 325 326 323
295 294 292 289 287 285 294 305 308 306 296 310 314 310 311 311 302 310 318 318 319 319 318 318 320 322 324 333 338 337 336 336 337 338 337 335 336 335 331 328 323 319 315 312
289 291 289 290 288 294 302 305 307 293 294 308 314 314 309 307 310 316 316 315 316 316 317 318 318 318 321 327 335 330 331 330 334 336 336 335 335 334 332 328 324 319 316 315
289 289 288 289 286 286 307 307 298 301 305 309 315 315 315 317 317 313 313 315 315 315 315 316 317 318 320 325 326 323 322 327 330 332 333 333 334 335 332 326 321 317 313 308
291 294 292 293 292 300 305 304 306 307 311 311 312 317 317 318 315 313 309 312 313 315 315 316 315 317 319 321 324 321 322 325 324 323 320 317 316 319 326 323 320 315 310 306
299 298 296 295 297 302 307 309 308 310 314 316 315 316 316 314 314 313 309 309 313 314 314 315 315 313 315 319 320 321 322 319 316 313 310 309 309 309 308 308 311 319 315 313
299 298 297 296 301 304 308 309 309 315 318 318 318 318 315 312 309 307 306 308 312 313 314 314 311 312 312 314 316 318 319 316 312 309 307 304 303 302 299 301 302 302 299 303
300 297 296 296 302 302 304 308 311 317 318 318 318 316 315 312 309 307 306 307 308 312 313 311 311 310 310 313 313 314 316 316 312 309 308 306 304 302 301 300 298 298 298 297

GFSCGP_sfc_thetae_126.txt.gz
Theta_e
297 295 294 296 299 301 311 312 311 314 318 315 314 318 321 324 325 326 325 323 325 330 334 337 338 340 339 339 338 338 338 340 341 341 339 339 340 343 345 347 349 348 349 348
295 293 298 301 300 309 312 311 311 316 319 317 315 314 320 323 324 325 327 325 323 329 330 336 336 338 337 337 337 338 339 340 341 341 341 341 341 343 350 350 349 350 350 350
293 297 303 301 300 310 309 309 311 311 317 319 315 310 315 321 323 326 328 329 327 329 329 331 334 336 337 336 336 337 339 340 342 343 343 343 344 344 346 346 348 350 350 352
295 300 302 299 298 309 300 315 315 314 311 305 315 301 310 315 318 322 325 325 325 329 331 332 334 335 335 336 339 338 339 339 343 344 343 341 339 338 342 344 346 348 352 351
295 295 297 297 299 306 304 317 315 314 309 309 309 303 307 313 313 318 322 324 325 327 330 332 334 336 337 338 339 339 339 340 343 344 343 341 339 341 342 344 346 348 350 351
297 299 298 298 307 311 318 313 310 309 307 298 305 304 304 308 312 318 321 324 327 327 331 333 335 337 336 339 339 341 340 340 343 342 342 341 340 340 342 343 343 345 347 349
295 296 311 317 312 315 310 301 293 291 294 293 304 303 306 313 316 320 321 323 327 328 331 331 332 335 336 337 338 340 340 339 341 341 341 342 341 341 341 343 344 344 346 347
289 288 311 316 312 308 306 299 293 288 293 296 306 301 306 315 319 321 325 325 328 328 330 330 332 335 336 337 339 340 340 340 340 342 342 342 342 342 343 345 345 346 345 347
288 292 309 315 314 313 307 300 304 298 301 296 300 306 313 316 317 320 322 325 327 328 330 331 332 335 337 337 339 340 340 340 341 341 343 342 342 342 343 345 347 347 348 348
294 292 300 310 314 312 307 309 298 298 293 291 296 300 302 308 313 317 318 322 326 329 331 332 332 334 338 339 339 341 342 341 342 341 342 343 342 343 343 346 346 346 347 349
295 295 296 300 300 304 298 299 295 298 297 292 292 295 312 312 313 315 318 321 324 328 330 332 332 334 337 340 340 341 341 341 341 342 342 344 344 343 342 344 347 347 347 348
297 294 293 294 300 301 296 293 294 292 290 295 295 296 316 317 318 319 320 324 326 330 330 332 333 334 335 336 339 340 342 341 343 343 344 343 344 345 345 346 347 347 346 348
296 293 291 296 298 299 300 301 289 290 291 291 289 292 315 317 321 319 319 324 327 331 331 332 332 334 336 336 338 340 342 342 343 343 344 344 343 344 344 347 348 348 344 347
304 292 290 289 295 296 299 303 302 294 291 290 293 301 309 312 316 322 324 324 326 329 331 331 331 332 335 337 339 340 342 343 344 343 344 344 344 344 345 346 347 348 347 347
298 294 296 299 302 303 303 303 305 300 298 295 302 303 307 311 316 320 324 328 323 325 326 328 330 331 333 336 338 340 342 343 344 342 343 344 345 345 344 345 346 347 348 348
295 294 293 295 303 302 300 303 306 307 307 307 306 305 316 319 321 321 324 326 326 324 327 329 330 333 333 334 336 339 342 343 344 343 343 344 344 344 344 344 344 345 345 346
294 292 290 289 296 296 293 300 304 306 308 308 301 308 317 318 317 318 321 324 326 329 329 331 332 334 335 335 338 338 341 342 343 342 341 341 342 342 342 342 342 342 341 343
293 291 289 287 288 284 294 305 309 308 310 312 313 315 317 317 320 320 321 321 322 324 327 327 329 332 336 339 339 339 340 339 338 339 340 340 339 338 340 340 340 341 342 340
294 292 289 288 286 291 298 302 302 301 302 313 311 313 314 317 319 317 321 321 320 320 320 321 323 325 333 339 339 340 339 338 338 336 338 338 338 336 338 334 332 332 331 325
293 293 291 288 286 286 294 304 307 305 294 310 314 310 311 312 302 308 316 316 318 319 319 318 320 323 326 331 338 337 337 337 335 335 337 337 336 335 332 328 325 320 317 314
288 290 289 289 287 293 300 305 306 292 294 308 313 314 311 308 311 316 316 316 317 317 317 319 319 319 322 328 334 333 333 333 334 338 337 336 335 331 328 325 321 318 316 316
288 289 288 288 286 286 306 306 298 300 305 310 316 316 315 316 315 314 314 314 316 315 316 317 317 318 321 325 328 325 326 330 333 334 334 334 333 332 328 323 320 317 316 313
289 293 291 292 292 299 304 305 306 307 311 313 315 316 318 317 316 313 313 314 315 315 315 316 316 317 319 321 324 323 324 325 325 324 325 322 322 329 327 322 318 314 312 308
296 297 295 294 296 301 306 308 309 310 313 315 318 316 316 315 316 312 310 310 314 315 314 316 315 314 314 318 319 320 319 321 318 315 314 314 314 314 314 312 317 315 312 309
298 297 296 295 299 303 308 309 310 314 317 315 316 317 315 312 312 310 308 309 311 313 314 314 314 314 313 316 317 317 316 316 314 312 309 310 311 311 308 301 303 305 301 302
299 297 296 295 301 303 304 310 312 316 316 317 317 315 314 313 310 309 308 308 309 311 312 313 312 311 313 314 314 316 316 314 311 309 307 305 305 303 305 303 299 298 298 297